| time (UTC) | temp F | wind direction | speed MPH | gust MPH | rain 1hr in | rain 24hr in | rain mn in | humidity % | barometer mb |
| 20260510114915 | 66 | 98 | 0.0 | 0.0 | 0.00 | 0.00 | 0.00 | 99 | 1014.4 |
| 20260510114413 | 65 | 80 | 0.0 | 0.0 | 0.00 | 0.00 | 0.00 | 99 | 1014.4 |
| 20260510113908 | 65 | 95 | 0.0 | 0.0 | 0.00 | 0.00 | 0.00 | 99 | 1014.3 |
| 20260510113404 | 65 | 100 | 0.0 | 0.0 | 0.00 | 0.00 | 0.00 | 99 | 1014.1 |
| 20260510112901 | 65 | 97 | 0.0 | 0.0 | 0.00 | 0.00 | 0.00 | 99 | 1013.9 |
| 20260510112358 | 65 | 99 | 0.0 | 0.0 | 0.00 | 0.00 | 0.00 | 99 | 1013.7 |
| 20260510111854 | 65 | 81 | 0.0 | 0.0 | 0.00 | 0.00 | 0.00 | 99 | 1013.8 |
| 20260510111351 | 65 | 90 | 0.0 | 0.0 | 0.00 | 0.00 | 0.00 | 99 | 1013.5 |
| 20260510110846 | 66 | 81 | 0.0 | 0.0 | 0.00 | 0.00 | 0.00 | 99 | 1013.5 |
| 20260510110343 | 66 | 97 | 0.0 | 0.0 | 0.00 | 0.00 | 0.00 | 99 | 1013.2 |
| 20260510105839 | 66 | 80 | 0.0 | 1.0 | 0.00 | 0.00 | 0.00 | 99 | 1013.4 |
| 20260510105339 | 66 | 103 | 0.0 | 0.0 | 0.00 | 0.00 | 0.00 | 99 | 1013.3 |
| 20260510104835 | 66 | 79 | 1.0 | 1.0 | 0.00 | 0.00 | 0.00 | 99 | 1013.2 |
| 20260510104332 | 66 | 97 | 0.0 | 0.0 | 0.00 | 0.00 | 0.00 | 99 | 1012.9 |
| 20260510103828 | 66 | 115 | 0.0 | 0.0 | 0.00 | 0.00 | 0.00 | 99 | 1013.0 |
| 20260510103326 | 66 | 108 | 0.0 | 0.0 | 0.00 | 0.00 | 0.00 | 99 | 1012.9 |
| 20260510102821 | 66 | 83 | 0.0 | 0.0 | 0.00 | 0.00 | 0.00 | 99 | 1012.8 |
| 20260510102317 | 66 | 95 | 0.0 | 0.0 | 0.00 | 0.00 | 0.00 | 99 | 1012.8 |
| 20260510101815 | 66 | 93 | 0.0 | 0.0 | 0.00 | 0.00 | 0.00 | 99 | 1012.8 |
| 20260510101312 | 66 | 111 | 0.0 | 0.0 | 0.00 | 0.00 | 0.00 | 99 | 1012.7 |
| 20260510100808 | 66 | 78 | 0.0 | 0.0 | 0.00 | 0.00 | 0.00 | 99 | 1012.4 |
| 20260510100306 | 66 | 80 | 0.0 | 1.0 | 0.00 | 0.00 | 0.00 | 99 | 1012.8 |
| 20260510095802 | 66 | 97 | 0.0 | 0.0 | 0.00 | 0.00 | 0.00 | 99 | 1012.5 |
| 20260510095257 | 66 | 101 | 0.0 | 0.0 | 0.00 | 0.00 | 0.00 | 99 | 1012.4 |
| 20260510094756 | 66 | 79 | 0.0 | 0.0 | 0.00 | 0.00 | 0.00 | 99 | 1012.4 |
| 20260510094251 | 66 | 87 | 0.0 | 0.0 | 0.00 | 0.00 | 0.00 | 99 | 1012.6 |
| 20260510093748 | 66 | 79 | 1.0 | 2.0 | 0.00 | 0.00 | 0.00 | 99 | 1012.4 |
| 20260510093245 | 66 | 72 | 1.0 | 1.0 | 0.00 | 0.00 | 0.00 | 99 | 1012.2 |
| 20260510092741 | 66 | 100 | 0.0 | 0.0 | 0.00 | 0.00 | 0.00 | 99 | 1012.4 |
| 20260510092237 | 66 | 70 | 0.0 | 0.0 | 0.00 | 0.00 | 0.00 | 99 | 1012.2 |
| 20260510091733 | 66 | 95 | 0.0 | 0.0 | 0.00 | 0.00 | 0.00 | 99 | 1012.4 |
| 20260510091230 | 66 | 105 | 0.0 | 0.0 | 0.00 | 0.00 | 0.00 | 99 | 1012.6 |
| 20260510090726 | 66 | 107 | 0.0 | 0.0 | 0.00 | 0.00 | 0.00 | 99 | 1012.6 |
| 20260510090224 | 66 | 97 | 0.0 | 0.0 | 0.00 | 0.00 | 0.00 | 99 | 1012.5 |
| 20260510085718 | 66 | 101 | 0.0 | 0.0 | 0.00 | 0.00 | 0.00 | 99 | 1012.4 |
| 20260510085213 | 66 | 98 | 0.0 | 0.0 | 0.00 | 0.00 | 0.00 | 99 | 1012.4 |
| 20260510084710 | 66 | 93 | 0.0 | 0.0 | 0.00 | 0.00 | 0.00 | 99 | 1012.4 |
| 20260510084207 | 66 | 110 | 0.0 | 0.0 | 0.00 | 0.00 | 0.00 | 99 | 1012.3 |
| 20260510083704 | 66 | 112 | 0.0 | 0.0 | 0.00 | 0.00 | 0.00 | 99 | 1012.3 |
| 20260510083201 | 66 | 100 | 0.0 | 0.0 | 0.00 | 0.00 | 0.00 | 99 | 1012.5 |
| 20260510082656 | 66 | 100 | 0.0 | 0.0 | 0.00 | 0.00 | 0.00 | 99 | 1012.3 |
| 20260510082152 | 66 | 104 | 0.0 | 0.0 | 0.00 | 0.00 | 0.00 | 99 | 1012.3 |
| 20260510081647 | 66 | 100 | 0.0 | 0.0 | 0.00 | 0.00 | 0.00 | 99 | 1012.3 |
| 20260510081143 | 66 | 98 | 0.0 | 0.0 | 0.00 | 0.00 | 0.00 | 99 | 1012.2 |
| 20260510080642 | 66 | 98 | 0.0 | 0.0 | 0.00 | 0.00 | 0.00 | 99 | 1012.4 |
| 20260510080140 | 66 | 98 | 0.0 | 0.0 | 0.00 | 0.00 | 0.00 | 99 | 1012.3 |
| 20260510075637 | 66 | 99 | 0.0 | 0.0 | 0.00 | 0.00 | 0.00 | 99 | 1012.4 |
| 20260510075134 | 66 | 100 | 0.0 | 0.0 | 0.00 | 0.00 | 0.00 | 99 | 1012.3 |
| 20260510074631 | 66 | 105 | 0.0 | 0.0 | 0.00 | 0.00 | 0.00 | 99 | 1012.3 |
| 20260510074126 | 66 | 103 | 0.0 | 0.0 | 0.00 | 0.00 | 0.00 | 99 | 1012.3 |
| 20260510073623 | 66 | 107 | 0.0 | 0.0 | 0.00 | 0.00 | 0.00 | 99 | 1012.2 |
| 20260510073120 | 66 | 89 | 0.0 | 0.0 | 0.00 | 0.00 | 0.00 | 99 | 1012.2 |
| 20260510072616 | 66 | 104 | 0.0 | 0.0 | 0.00 | 0.00 | 0.00 | 99 | 1012.3 |
| 20260510072113 | 66 | 106 | 0.0 | 0.0 | 0.00 | 0.00 | 0.00 | 99 | 1012.2 |
| 20260510071608 | 66 | 101 | 0.0 | 0.0 | 0.00 | 0.00 | 0.00 | 99 | 1012.1 |
| 20260510071106 | 66 | 87 | 1.0 | 1.0 | 0.00 | 0.00 | 0.00 | 99 | 1011.9 |
| 20260510070603 | 66 | 85 | 0.0 | 0.0 | 0.00 | 0.00 | 0.00 | 99 | 1012.0 |
| 20260510065557 | 66 | 91 | 0.0 | 0.0 | 0.00 | 0.00 | 0.00 | 99 | 1011.9 |
| 20260510065052 | 66 | 110 | 0.0 | 0.0 | 0.00 | 0.00 | 0.00 | 99 | 1012.0 |
| 20260510064549 | 67 | 108 | 0.0 | 0.0 | 0.00 | 0.00 | 0.00 | 99 | 1011.9 |
| 20260510064046 | 67 | 119 | 0.0 | 0.0 | 0.00 | 0.00 | 0.00 | 99 | 1011.9 |
| 20260510063543 | 67 | 114 | 0.0 | 0.0 | 0.00 | 0.00 | 0.00 | 99 | 1012.0 |
| 20260510063040 | 67 | 104 | 0.0 | 0.0 | 0.00 | 0.00 | 0.00 | 99 | 1012.0 |
| 20260510062536 | 67 | 90 | 0.0 | 0.0 | 0.00 | 0.00 | 0.00 | 99 | 1012.4 |
| 20260510062031 | 67 | 51 | 0.0 | 1.0 | 0.00 | 0.00 | 0.00 | 99 | 1012.3 |
| 20260510061528 | 67 | 93 | 0.0 | 0.0 | 0.00 | 0.00 | 0.00 | 99 | 1012.1 |
| 20260510061025 | 66 | 107 | 0.0 | 0.0 | 0.00 | 0.00 | 0.00 | 99 | 1012.0 |
| 20260510060521 | 67 | 114 | 0.0 | 0.0 | 0.00 | 0.00 | 0.00 | 99 | 1011.9 |
| 20260510060017 | 66 | 110 | 0.0 | 0.0 | 0.00 | 0.00 | 0.00 | 99 | 1012.0 |
| 20260510055513 | 66 | 107 | 0.0 | 0.0 | 0.00 | 0.00 | 0.00 | 99 | 1012.1 |
| 20260510055012 | 66 | 112 | 0.0 | 0.0 | 0.00 | 0.00 | 0.00 | 99 | 1012.2 |
| 20260510054507 | 66 | 109 | 0.0 | 0.0 | 0.00 | 0.00 | 0.00 | 99 | 1012.5 |
| 20260510054002 | 66 | 110 | 0.0 | 0.0 | 0.00 | 0.00 | 0.00 | 99 | 1012.4 |
| 20260510053457 | 66 | 108 | 0.0 | 0.0 | 0.00 | 0.00 | 0.00 | 99 | 1012.5 |
| 20260510052954 | 66 | 103 | 0.0 | 0.0 | 0.00 | 0.00 | 0.00 | 99 | 1012.6 |
| 20260510052450 | 66 | 108 | 0.0 | 0.0 | 0.00 | 0.00 | 0.00 | 99 | 1012.5 |
| 20260510051946 | 66 | 109 | 0.0 | 0.0 | 0.00 | 0.00 | 0.00 | 99 | 1012.2 |
| 20260510051442 | 66 | 110 | 0.0 | 0.0 | 0.00 | 0.00 | 0.00 | 99 | 1012.3 |
| 20260510050938 | 66 | 110 | 0.0 | 0.0 | 0.00 | 0.00 | 0.00 | 99 | 1012.5 |
| 20260510050436 | 67 | 106 | 0.0 | 0.0 | 0.00 | 0.00 | 0.00 | 99 | 1012.3 |
| 20260510045933 | 67 | 100 | 0.0 | 0.0 | 0.00 | 2.73 | 2.73 | 99 | 1012.4 |
| 20260510045430 | 67 | 104 | 0.0 | 0.0 | 0.00 | 2.73 | 2.73 | 99 | 1012.5 |
| 20260510044926 | 67 | 101 | 0.0 | 0.0 | 0.00 | 2.73 | 2.73 | 99 | 1012.5 |
| 20260510044424 | 67 | 84 | 0.0 | 1.0 | 0.00 | 2.73 | 2.73 | 99 | 1012.6 |
| 20260510043920 | 67 | 101 | 0.0 | 0.0 | 0.00 | 2.73 | 2.73 | 99 | 1012.6 |
| 20260510043416 | 67 | 102 | 0.0 | 0.0 | 0.00 | 2.73 | 2.73 | 99 | 1012.5 |
| 20260510042914 | 67 | 102 | 0.0 | 0.0 | 0.00 | 2.73 | 2.73 | 99 | 1012.7 |
| 20260510042410 | 67 | 92 | 0.0 | 0.0 | 0.00 | 2.73 | 2.73 | 99 | 1012.7 |
| 20260510041906 | 67 | 75 | 0.0 | 1.0 | 0.00 | 2.73 | 2.73 | 99 | 1012.7 |
| 20260510041403 | 67 | 74 | 0.0 | 1.0 | 0.00 | 2.73 | 2.73 | 99 | 1012.3 |
| 20260510040901 | 67 | 104 | 0.0 | 0.0 | 0.00 | 2.73 | 2.73 | 99 | 1012.3 |
| 20260510040358 | 67 | 103 | 0.0 | 0.0 | 0.00 | 2.73 | 2.73 | 99 | 1012.0 |
| 20260510035854 | 67 | 112 | 0.0 | 1.0 | 0.00 | 2.73 | 2.73 | 99 | 1012.1 |
| 20260510035349 | 67 | 118 | 1.0 | 1.0 | 0.00 | 2.73 | 2.73 | 99 | 1012.0 |
| 20260510034844 | 67 | 99 | 0.0 | 1.0 | 0.00 | 2.73 | 2.73 | 99 | 1011.9 |
| 20260510034343 | 67 | 75 | 0.0 | 0.0 | 0.00 | 2.73 | 2.73 | 99 | 1012.1 |
| 20260510033839 | 67 | 121 | 1.0 | 2.0 | 0.00 | 2.73 | 2.73 | 99 | 1012.2 |
| 20260510033336 | 67 | 109 | 0.0 | 0.0 | 0.00 | 2.73 | 2.73 | 99 | 1012.0 |
| 20260510032832 | 67 | 121 | 0.0 | 0.0 | 0.00 | 2.73 | 2.73 | 99 | 1012.2 |
| 20260510032329 | 67 | 94 | 0.0 | 0.0 | 0.00 | 2.73 | 2.73 | 99 | 1012.3 |
| 20260510031825 | 67 | 107 | 0.0 | 0.0 | 0.00 | 2.73 | 2.73 | 99 | 1012.3 |
| 20260510031321 | 67 | 107 | 0.0 | 0.0 | 0.00 | 2.73 | 2.73 | 99 | 1012.5 |
| 20260510030821 | 67 | 107 | 0.0 | 0.0 | 0.00 | 2.73 | 2.73 | 99 | 1012.5 |
| 20260510030317 | 67 | 99 | 0.0 | 0.0 | 0.00 | 2.73 | 2.73 | 99 | 1012.5 |
| 20260510025815 | 67 | 101 | 0.0 | 0.0 | 0.00 | 2.73 | 2.73 | 99 | 1012.5 |
| 20260510025312 | 67 | 95 | 0.0 | 0.0 | 0.00 | 2.73 | 2.73 | 99 | 1012.5 |
| 20260510024809 | 67 | 68 | 1.0 | 1.0 | 0.00 | 2.73 | 2.73 | 99 | 1012.0 |
| 20260510024306 | 67 | 97 | 1.0 | 1.0 | 0.00 | 2.73 | 2.73 | 99 | 1011.6 |
| 20260510023802 | 67 | 94 | 1.0 | 1.0 | 0.00 | 2.73 | 2.73 | 99 | 1012.0 |
| 20260510023258 | 67 | 103 | 0.0 | 0.0 | 0.00 | 2.73 | 2.73 | 99 | 1011.9 |
| 20260510022756 | 67 | 96 | 0.0 | 0.0 | 0.00 | 2.73 | 2.73 | 99 | 1012.0 |
| 20260510022255 | 67 | 84 | 0.0 | 1.0 | 0.00 | 2.73 | 2.73 | 99 | 1011.8 |
| 20260510021754 | 67 | 104 | 0.0 | 0.0 | 0.00 | 2.73 | 2.73 | 99 | 1011.5 |
| 20260510021253 | 67 | 99 | 0.0 | 0.0 | 0.05 | 2.73 | 2.73 | 99 | 1011.8 |
| 20260510020748 | 67 | 91 | 0.0 | 1.0 | 0.05 | 2.73 | 2.73 | 99 | 1011.7 |
| 20260510020248 | 67 | 100 | 0.0 | 0.0 | 0.00 | 2.72 | 2.72 | 99 | 1011.8 |
| 20260510015745 | 67 | 110 | 0.0 | 0.0 | 0.00 | 2.72 | 2.72 | 99 | 1011.9 |
| 20260510015241 | 67 | 109 | 0.0 | 0.0 | 0.00 | 2.72 | 2.72 | 99 | 1012.1 |
| 20260510014736 | 67 | 138 | 0.0 | 1.0 | 0.00 | 2.72 | 2.72 | 99 | 1012.0 |
| 20260510014234 | 67 | 121 | 0.0 | 0.0 | 0.00 | 2.72 | 2.72 | 99 | 1011.9 |
| 20260510013729 | 67 | 114 | 0.0 | 0.0 | 0.00 | 2.72 | 2.72 | 99 | 1012.2 |
| 20260510013225 | 67 | 122 | 0.0 | 0.0 | 0.00 | 2.72 | 2.72 | 99 | 1012.2 |
| 20260510012725 | 67 | 108 | 0.0 | 0.0 | 0.00 | 2.72 | 2.72 | 99 | 1012.2 |
| 20260510012221 | 67 | 126 | 1.0 | 1.0 | 0.00 | 2.72 | 2.72 | 99 | 1012.3 |
| 20260510011720 | 67 | 109 | 0.0 | 0.0 | 0.00 | 2.72 | 2.72 | 99 | 1012.5 |
| 20260510011216 | 67 | 106 | 0.0 | 0.0 | 0.00 | 2.72 | 2.72 | 99 | 1012.5 |
| 20260510010713 | 67 | 98 | 0.0 | 0.0 | 0.00 | 2.72 | 2.72 | 99 | 1012.4 |
| 20260510010209 | 67 | 106 | 0.0 | 0.0 | 0.00 | 2.72 | 2.72 | 99 | 1012.4 |
| 20260510005706 | 67 | 128 | 1.0 | 1.0 | 0.00 | 2.72 | 2.72 | 99 | 1012.5 |
| 20260510005202 | 67 | 125 | 0.0 | 0.0 | 0.00 | 2.72 | 2.72 | 99 | 1012.3 |
| 20260510004701 | 67 | 88 | 0.0 | 0.0 | 0.00 | 2.72 | 2.72 | 99 | 1011.7 |
| 20260510004159 | 67 | 96 | 0.0 | 0.0 | 0.00 | 2.72 | 2.72 | 99 | 1011.7 |
| 20260510003656 | 67 | 98 | 0.0 | 0.0 | 0.00 | 2.72 | 2.72 | 99 | 1011.5 |
| 20260510003152 | 67 | 101 | 0.0 | 0.0 | 0.00 | 2.72 | 2.72 | 99 | 1011.4 |
| 20260510002651 | 67 | 112 | 0.0 | 0.0 | 0.00 | 2.72 | 2.72 | 99 | 1011.1 |
| 20260510002149 | 67 | 85 | 0.0 | 0.0 | 0.00 | 2.72 | 2.72 | 99 | 1011.2 |
| 20260510001646 | 67 | 63 | 1.0 | 1.0 | 0.07 | 2.72 | 2.72 | 99 | 1010.8 |
| 20260510001144 | 67 | 104 | 0.0 | 0.0 | 0.07 | 2.72 | 2.72 | 99 | 1010.8 |
| 20260510000644 | 67 | 88 | 0.0 | 0.0 | 0.05 | 2.71 | 2.71 | 99 | 1010.8 |
| 20260510000142 | 67 | 86 | 0.0 | 0.0 | 0.12 | 2.71 | 2.71 | 99 | 1010.7 |
| 20260509235638 | 67 | 104 | 0.0 | 0.0 | 0.07 | 2.70 | 2.70 | 99 | 1010.7 |
| 20260509235135 | 67 | 125 | 0.0 | 0.0 | 0.00 | 2.69 | 2.69 | 99 | 1010.8 |
| 20260509234631 | 67 | 119 | 2.0 | 2.0 | 0.05 | 2.69 | 2.69 | 99 | 1010.3 |
| 20260509234129 | 67 | 86 | 1.0 | 1.0 | 0.05 | 2.69 | 2.69 | 99 | 1010.5 |
| 20260509233626 | 67 | 89 | 1.0 | 1.0 | 0.00 | 2.68 | 2.68 | 99 | 1010.5 |
| 20260509233124 | 67 | 93 | 0.0 | 0.0 | 0.00 | 2.68 | 2.68 | 99 | 1010.5 |
| 20260509232619 | 67 | 99 | 0.0 | 0.0 | 0.00 | 2.68 | 2.68 | 99 | 1010.4 |
| 20260509232117 | 67 | 102 | 1.0 | 2.0 | 0.07 | 2.68 | 2.68 | 99 | 1010.5 |
| 20260509231613 | 67 | 96 | 1.0 | 1.0 | 0.07 | 2.68 | 2.68 | 99 | 1010.5 |
| 20260509231111 | 67 | 108 | 0.0 | 0.0 | 0.05 | 2.67 | 2.67 | 99 | 1010.7 |
| 20260509230608 | 67 | 112 | 0.0 | 0.0 | 0.05 | 2.67 | 2.67 | 99 | 1010.9 |
| 20260509230105 | 67 | 112 | 0.0 | 0.0 | 0.07 | 2.66 | 2.66 | 99 | 1010.9 |
| 20260509225600 | 67 | 102 | 0.0 | 0.0 | 0.07 | 2.66 | 2.66 | 99 | 1011.0 |
| 20260509225056 | 67 | 107 | 0.0 | 0.0 | 0.05 | 2.65 | 2.65 | 99 | 1011.0 |
| 20260509224551 | 67 | 108 | 0.0 | 0.0 | 0.12 | 2.65 | 2.65 | 99 | 1010.8 |
| 20260509224049 | 67 | 102 | 0.0 | 0.0 | 0.07 | 2.64 | 2.64 | 99 | 1010.9 |
| 20260509223546 | 67 | 109 | 0.0 | 0.0 | 0.07 | 2.63 | 2.63 | 99 | 1011.2 |
| 20260509223043 | 67 | 107 | 0.0 | 0.0 | 0.12 | 2.63 | 2.63 | 99 | 1011.3 |
| 20260509222539 | 67 | 110 | 0.0 | 0.0 | 0.17 | 2.62 | 2.62 | 99 | 1011.1 |
| 20260509222036 | 67 | 106 | 0.0 | 0.0 | 0.19 | 2.61 | 2.61 | 99 | 1010.9 |
| 20260509221531 | 67 | 105 | 0.0 | 0.0 | 0.17 | 2.60 | 2.60 | 99 | 1010.7 |
| 20260509221027 | 67 | 92 | 0.0 | 0.0 | 0.17 | 2.58 | 2.58 | 99 | 1011.0 |
| 20260509220523 | 66 | 105 | 0.0 | 0.0 | 0.17 | 2.56 | 2.56 | 99 | 1011.1 |
| 20260509220020 | 67 | 81 | 1.0 | 1.0 | 0.19 | 2.55 | 2.55 | 99 | 1011.3 |
| 20260509215515 | 66 | 80 | 0.0 | 0.0 | 0.12 | 2.53 | 2.53 | 99 | 1011.1 |
| 20260509215013 | 66 | 93 | 0.0 | 0.0 | 0.12 | 2.52 | 2.52 | 99 | 1010.8 |
| 20260509214510 | 67 | 22 | 2.0 | 2.0 | 0.19 | 2.51 | 2.51 | 99 | 1010.9 |
| 20260509214007 | 67 | 112 | 0.0 | 0.0 | 0.19 | 2.50 | 2.50 | 99 | 1010.5 |
| 20260509213502 | 67 | 114 | 0.0 | 0.0 | 0.17 | 2.49 | 2.49 | 99 | 1010.8 |
| 20260509212959 | 67 | 99 | 0.0 | 0.0 | 0.12 | 2.47 | 2.47 | 99 | 1011.0 |
| 20260509212456 | 67 | 119 | 1.0 | 1.0 | 0.12 | 2.46 | 2.46 | 99 | 1010.8 |
| 20260509211953 | 67 | 105 | 0.0 | 0.0 | 0.12 | 2.45 | 2.45 | 99 | 1011.3 |
| 20260509211448 | 67 | 100 | 0.0 | 0.0 | 0.07 | 2.44 | 2.44 | 99 | 1010.5 |
| 20260509210946 | 67 | 109 | 0.0 | 0.0 | 0.05 | 2.43 | 2.43 | 99 | 1010.7 |
| 20260509210443 | 67 | 112 | 0.0 | 0.0 | 0.05 | 2.43 | 2.43 | 99 | 1010.5 |
| 20260509205938 | 67 | 94 | 0.0 | 0.0 | 0.05 | 2.43 | 2.43 | 99 | 1010.4 |
| 20260509205433 | 67 | 98 | 0.0 | 0.0 | 0.07 | 2.42 | 2.42 | 99 | 1011.0 |
| 20260509204929 | 67 | 119 | 0.0 | 0.0 | 0.12 | 2.42 | 2.42 | 99 | 1011.2 |
| 20260509204425 | 67 | 119 | 0.0 | 0.0 | 0.12 | 2.41 | 2.41 | 99 | 1010.5 |
| 20260509203922 | 67 | 95 | 0.0 | 0.0 | 0.07 | 2.40 | 2.40 | 99 | 1010.9 |
| 20260509203418 | 67 | 113 | 0.0 | 0.0 | 0.05 | 2.39 | 2.39 | 99 | 1010.9 |
| 20260509202916 | 67 | 31 | 2.0 | 2.0 | 0.19 | 2.39 | 2.39 | 99 | 1010.4 |
| 20260509202412 | 67 | 126 | 1.0 | 1.0 | 0.26 | 2.38 | 2.38 | 99 | 1010.3 |
| 20260509201907 | 67 | 108 | 0.0 | 0.0 | 0.24 | 2.36 | 2.36 | 99 | 1010.8 |
| 20260509201402 | 67 | 125 | 0.0 | 0.0 | 0.54 | 2.34 | 2.34 | 99 | 1010.9 |
| 20260509200859 | 67 | 115 | 0.0 | 1.0 | 0.71 | 2.32 | 2.32 | 99 | 1010.6 |
| 20260509200354 | 67 | 128 | 0.0 | 1.0 | 0.42 | 2.26 | 2.26 | 99 | 1011.5 |
| 20260509195851 | 67 | 112 | 0.0 | 0.0 | 0.12 | 2.20 | 2.20 | 99 | 1011.8 |
| 20260509195351 | 67 | 107 | 0.0 | 0.0 | 0.17 | 2.19 | 2.19 | 99 | 1011.3 |
| 20260509194851 | 67 | 111 | 0.0 | 0.0 | 0.24 | 2.18 | 2.18 | 99 | 1011.5 |
| 20260509194347 | 67 | 74 | 2.0 | 3.0 | 0.24 | 2.17 | 2.17 | 99 | 1010.6 |
| 20260509193844 | 67 | 86 | 1.0 | 1.0 | 0.26 | 2.14 | 2.14 | 99 | 1011.4 |
| 20260509193344 | 67 | 129 | 1.0 | 1.0 | 0.31 | 2.13 | 2.13 | 99 | 1011.7 |
| 20260509192840 | 67 | 95 | 0.0 | 1.0 | 0.31 | 2.11 | 2.11 | 99 | 1011.6 |
| 20260509192336 | 67 | 104 | 2.0 | 2.0 | 0.35 | 2.08 | 2.08 | 99 | 1011.7 |
| 20260509191831 | 67 | 119 | 0.0 | 1.0 | 0.31 | 2.05 | 2.05 | 99 | 1011.7 |
| 20260509191327 | 67 | 62 | 2.0 | 2.0 | 0.19 | 2.02 | 2.02 | 99 | 1012.1 |
| 20260509190824 | 67 | 110 | 0.0 | 0.0 | 0.07 | 2.00 | 2.00 | 99 | 1012.1 |
| 20260509190321 | 67 | 113 | 0.0 | 0.0 | 0.00 | 1.99 | 1.99 | 99 | 1012.3 |
| 20260509185818 | 67 | 120 | 0.0 | 0.0 | 0.05 | 1.99 | 1.99 | 99 | 1011.8 |
| 20260509185314 | 67 | 109 | 0.0 | 0.0 | 0.05 | 1.99 | 1.99 | 99 | 1011.6 |
| 20260509184812 | 67 | 99 | 0.0 | 1.0 | 0.00 | 1.98 | 1.98 | 99 | 1011.6 |
| 20260509184309 | 67 | 79 | 0.0 | 0.0 | 0.00 | 1.98 | 1.98 | 99 | 1011.9 |
| 20260509183806 | 67 | 74 | 0.0 | 0.0 | 0.07 | 1.98 | 1.98 | 99 | 1011.7 |
| 20260509183301 | 67 | 94 | 0.0 | 0.0 | 0.12 | 1.98 | 1.98 | 99 | 1012.1 |
| 20260509182756 | 67 | 99 | 0.0 | 0.0 | 0.05 | 1.97 | 1.97 | 99 | 1012.0 |
| 20260509182254 | 67 | 106 | 0.0 | 0.0 | 0.00 | 1.96 | 1.96 | 99 | 1012.0 |
| 20260509181751 | 66 | 124 | 0.0 | 0.0 | 0.07 | 1.96 | 1.96 | 99 | 1012.0 |
| 20260509181249 | 66 | 101 | 0.0 | 0.0 | 0.07 | 1.96 | 1.96 | 99 | 1011.9 |
| 20260509180746 | 66 | 107 | 0.0 | 0.0 | 0.07 | 1.96 | 1.96 | 99 | 1011.8 |
| 20260509180242 | 66 | 78 | 0.0 | 0.0 | 0.00 | 1.95 | 1.95 | 99 | 1011.8 |
| 20260509175738 | 66 | 102 | 0.0 | 0.0 | 0.00 | 1.95 | 1.95 | 99 | 1011.8 |
| 20260509175235 | 66 | 94 | 1.0 | 1.0 | 0.05 | 1.95 | 1.95 | 99 | 1011.9 |
| 20260509174731 | 66 | 108 | 1.0 | 1.0 | 0.05 | 1.95 | 1.95 | 99 | 1012.1 |
| 20260509174226 | 66 | 106 | 0.0 | 0.0 | 0.00 | 1.94 | 1.94 | 99 | 1012.1 |
| 20260509173723 | 66 | 115 | 0.0 | 0.0 | 0.00 | 1.94 | 1.94 | 99 | 1011.8 |
| 20260509173219 | 66 | 107 | 0.0 | 0.0 | 0.00 | 1.94 | 1.94 | 99 | 1011.6 |
| 20260509172715 | 66 | 109 | 0.0 | 0.0 | 0.00 | 1.94 | 1.94 | 99 | 1011.6 |
| 20260509172211 | 66 | 102 | 0.0 | 0.0 | 0.00 | 1.94 | 1.94 | 99 | 1011.5 |
| 20260509171707 | 66 | 91 | 0.0 | 0.0 | 0.00 | 1.94 | 1.94 | 99 | 1011.8 |
| 20260509171203 | 66 | 87 | 2.0 | 3.0 | 0.00 | 1.94 | 1.94 | 99 | 1011.8 |
| 20260509170700 | 66 | 116 | 0.0 | 0.0 | 0.00 | 1.94 | 1.94 | 99 | 1012.0 |
| 20260509170156 | 66 | 122 | 0.0 | 0.0 | 0.00 | 1.94 | 1.94 | 99 | 1011.9 |
| 20260509165654 | 66 | 109 | 0.0 | 0.0 | 0.00 | 1.94 | 1.94 | 99 | 1011.8 |
| 20260509165150 | 66 | 67 | 0.0 | 0.0 | 0.00 | 1.94 | 1.94 | 99 | 1011.9 |
| 20260509164646 | 66 | 125 | 0.0 | 0.0 | 0.00 | 1.94 | 1.94 | 99 | 1012.0 |
| 20260509164142 | 66 | 96 | 0.0 | 0.0 | 0.00 | 1.94 | 1.94 | 99 | 1011.8 |
| 20260509163640 | 66 | 90 | 1.0 | 2.0 | 0.00 | 1.94 | 1.94 | 99 | 1012.1 |
| 20260509163135 | 66 | 109 | 0.0 | 1.0 | 0.00 | 1.94 | 1.94 | 99 | 1012.1 |
| 20260509162633 | 66 | 115 | 0.0 | 0.0 | 0.07 | 1.94 | 1.94 | 99 | 1012.0 |
| 20260509162129 | 66 | 113 | 0.0 | 0.0 | 0.07 | 1.94 | 1.94 | 99 | 1012.0 |
| 20260509161625 | 66 | 109 | 0.0 | 0.0 | 0.00 | 1.93 | 1.93 | 99 | 1012.1 |
| 20260509161120 | 66 | 90 | 1.0 | 1.0 | 0.00 | 1.93 | 1.93 | 99 | 1012.2 |
| 20260509160616 | 66 | 140 | 1.0 | 2.0 | 0.00 | 1.93 | 1.93 | 99 | 1012.3 |
| 20260509160112 | 66 | 99 | 2.0 | 2.0 | 0.00 | 1.93 | 1.93 | 99 | 1012.0 |
| 20260509155608 | 66 | 97 | 0.0 | 1.0 | 0.00 | 1.93 | 1.93 | 99 | 1011.8 |
| 20260509155105 | 66 | 122 | 2.0 | 2.0 | 0.00 | 1.93 | 1.93 | 99 | 1012.3 |
| 20260509154600 | 66 | 93 | 0.0 | 0.0 | 0.00 | 1.93 | 1.93 | 99 | 1012.2 |
| 20260509154058 | 66 | 81 | 0.0 | 0.0 | 0.00 | 1.93 | 1.93 | 99 | 1012.4 |
| 20260509153555 | 66 | 99 | 2.0 | 4.0 | 0.00 | 1.93 | 1.93 | 99 | 1012.1 |
| 20260509153052 | 66 | 75 | 2.0 | 3.0 | 0.05 | 1.93 | 1.93 | 99 | 1012.0 |
| 20260509152548 | 66 | 91 | 3.0 | 3.0 | 0.12 | 1.93 | 1.93 | 99 | 1011.8 |
| 20260509152045 | 66 | 101 | 4.0 | 4.0 | 0.12 | 1.92 | 1.92 | 99 | 1011.8 |
| 20260509151541 | 66 | 117 | 0.0 | 1.0 | 0.12 | 1.92 | 1.92 | 99 | 1011.9 |
| 20260509151039 | 66 | 110 | 0.0 | 1.0 | 0.12 | 1.91 | 1.91 | 99 | 1012.0 |
| 20260509150536 | 66 | 110 | 0.0 | 0.0 | 0.19 | 1.90 | 1.90 | 99 | 1011.6 |
| 20260509150035 | 66 | 106 | 0.0 | 0.0 | 0.31 | 1.89 | 1.89 | 99 | 1011.2 |
| 20260509145530 | 66 | 116 | 1.0 | 2.0 | 0.38 | 1.88 | 1.88 | 99 | 1011.5 |
| 20260509145025 | 66 | 147 | 1.0 | 1.0 | 0.17 | 1.84 | 1.84 | 99 | 1011.6 |
| 20260509144522 | 66 | 113 | 1.0 | 1.0 | 0.17 | 1.82 | 1.82 | 99 | 1011.5 |
| 20260509144020 | 66 | 116 | 0.0 | 0.0 | 0.24 | 1.81 | 1.81 | 99 | 1011.2 |
| 20260509143517 | 65 | 113 | 0.0 | 0.0 | 0.17 | 1.80 | 1.80 | 99 | 1011.3 |
| 20260509143015 | 65 | 110 | 0.0 | 0.0 | 0.19 | 1.77 | 1.77 | 99 | 1011.4 |
| 20260509142510 | 65 | 89 | 0.0 | 0.0 | 0.12 | 1.76 | 1.76 | 99 | 1011.7 |
| 20260509142005 | 65 | 87 | 3.0 | 3.0 | 0.00 | 1.74 | 1.74 | 99 | 1011.9 |
| 20260509141502 | 65 | 109 | 1.0 | 1.0 | 0.07 | 1.74 | 1.74 | 99 | 1011.7 |
| 20260509140959 | 65 | 112 | 0.0 | 0.0 | 0.07 | 1.74 | 1.74 | 99 | 1011.2 |
| 20260509140455 | 65 | 98 | 0.0 | 0.0 | 0.00 | 1.73 | 1.73 | 99 | 1010.9 |
| 20260509135954 | 65 | 63 | 1.0 | 1.0 | 0.12 | 1.73 | 1.73 | 99 | 1011.4 |
| 20260509135451 | 65 | 119 | 0.0 | 0.0 | 0.17 | 1.73 | 1.73 | 99 | 1011.4 |
| 20260509134948 | 65 | 95 | 0.0 | 0.0 | 0.05 | 1.71 | 1.71 | 99 | 1011.5 |
| 20260509134445 | 65 | 115 | 0.0 | 0.0 | 0.07 | 1.70 | 1.70 | 99 | 1011.6 |
| 20260509133943 | 65 | 110 | 0.0 | 0.0 | 0.12 | 1.70 | 1.70 | 99 | 1011.7 |
| 20260509133439 | 65 | 112 | 0.0 | 0.0 | 0.17 | 1.69 | 1.69 | 99 | 1011.6 |
| 20260509132937 | 65 | 100 | 0.0 | 0.0 | 0.24 | 1.68 | 1.68 | 99 | 1011.4 |
| 20260509132435 | 65 | 103 | 0.0 | 0.0 | 0.26 | 1.66 | 1.66 | 99 | 1011.9 |
| 20260509131932 | 65 | 109 | 0.0 | 0.0 | 0.26 | 1.64 | 1.64 | 99 | 1012.2 |
| 20260509131429 | 65 | 110 | 0.0 | 0.0 | 0.24 | 1.62 | 1.62 | 99 | 1012.1 |
| 20260509130926 | 65 | 91 | 0.0 | 0.0 | 0.24 | 1.60 | 1.60 | 99 | 1012.0 |
| 20260509130421 | 65 | 113 | 0.0 | 0.0 | 0.17 | 1.58 | 1.58 | 99 | 1011.9 |
| 20260509125918 | 65 | 125 | 1.0 | 2.0 | 0.12 | 1.56 | 1.56 | 99 | 1011.4 |
| 20260509125415 | 65 | 97 | 0.0 | 0.0 | 0.24 | 1.55 | 1.55 | 99 | 1011.0 |
| 20260509124911 | 65 | 95 | 1.0 | 1.0 | 0.31 | 1.54 | 1.54 | 99 | 1011.1 |
| 20260509124408 | 65 | 96 | 0.0 | 0.0 | 0.19 | 1.51 | 1.51 | 99 | 1011.3 |
| 20260509123906 | 65 | 98 | 1.0 | 1.0 | 0.24 | 1.49 | 1.49 | 99 | 1011.4 |
| 20260509123403 | 65 | 160 | 1.0 | 2.0 | 0.42 | 1.48 | 1.48 | 99 | 1011.6 |
| 20260509122858 | 65 | 127 | 1.0 | 1.0 | 0.54 | 1.46 | 1.46 | 99 | 1011.6 |
| 20260509122355 | 65 | 113 | 0.0 | 0.0 | 0.78 | 1.41 | 1.41 | 99 | 1011.4 |
| 20260509121852 | 65 | 94 | 0.0 | 0.0 | 0.71 | 1.36 | 1.36 | 99 | 1011.7 |
| 20260509121349 | 65 | 135 | 1.0 | 1.0 | 1.02 | 1.28 | 1.28 | 99 | 1011.5 |
| 20260509120848 | 64 | 107 | 0.0 | 0.0 | 1.44 | 1.23 | 1.23 | 99 | 1011.0 |
| 20260509120345 | 64 | 334 | 2.0 | 3.0 | 1.91 | 1.11 | 1.11 | 99 | 1011.0 |
| 20260509115843 | 64 | 325 | 4.0 | 6.0 | 4.18 | 0.99 | 0.99 | 99 | 1011.3 |
| 20260509115340 | 65 | 291 | 6.0 | 9.0 | 3.66 | 0.74 | 0.74 | 99 | 1011.0 |